This demonstration page uses our WeatherBlox Daily Observations layout. Learn more.

Left ArrowRight Arrow

Hourly Observations for May 2, 2019

Temp ( °F °C ) Dew Point ( °F °C ) Humidity (%) Winds ( mph kmh ) Pressure ( in mb ) Visibility ( mi km ) Precip ( " mm )
12:52 am 00:52 Cloudy 49 9.4 41 5 74 74 NW 10 17 30.16 1021 10 16 0.00 0.00
1:12 am 01:12 Cloudy with Light Rain 49 9.4 41 5 74 74 NNW 10 17 30.15 1021 10 16 0.00 0.03
1:52 am 01:52 Cloudy 48 8.9 42 5.6 80 80 N 13 20 30.11 1020 10 16 0.00 0.03
2:52 am 02:52 Mostly Cloudy 47 8.3 42 5.6 83 83 NNW 8 13 30.14 1021 10 16 0.00 0.00
3:26 am 03:26 Mostly Cloudy 46 7.8 41 5 83 83 N 6 9 30.16 1021 10 16 0.00 0.00
3:52 am 03:52 Mostly Cloudy 46 7.8 41 5 83 83 NNW 5 7 30.15 1021 10 16 0.00 0.00
4:52 am 04:52 Mostly Cloudy 46 7.8 41 5 83 83 NW 8 13 30.16 1021 10 16 0.00 0.00
5:23 am 05:23 Cloudy 46 7.8 41 5 83 83 NW 10 17 30.18 1022 10 16 0.00 0.00
5:52 am 05:52 Mostly Cloudy 46 7.8 40 4.4 79 79 NNW 8 13 30.17 1022 10 16 0.00 0.00
6:13 am 06:13 Cloudy 46 7.8 41 5 83 83 NNW 5 7 30.20 1023 10 16 0.00 0.00
6:52 am 06:52 Cloudy 46 7.8 41 5 83 83 N 6 9 30.19 1023 10 16 0.00 0.00
7:52 am 07:52 Cloudy 47 8.3 42 5.6 83 83 NW 9 15 30.19 1023 10 16 0.00 0.00
8:35 am 08:35 Mostly Cloudy 48 8.9 41 5 77 77 NNW 9 15 30.22 1023 10 16 0.00 0.00
8:52 am 08:52 Mostly Cloudy 48 8.9 41 5 77 77 N 10 17 30.20 1023 10 16 0.00 0.00
9:08 am 09:08 Mostly Cloudy 49 9.4 41 5 74 74 N 8 13 30.21 1023 10 16 0.00 0.00
9:46 am 09:46 Partly Cloudy 52 11 39 4 62 62 N 10 17 30.21 1023 10 16 0.00 0.00
9:52 am 09:52 Partly Cloudy 51 10.6 40 4.4 66 66 N 8 13 30.20 1023 10 16 0.00 0.00
10:52 am 10:52 Partly Cloudy 52 11.1 39 3.9 61 61 N 9 15 30.21 1023 10 16 0.00 0.00
11:52 am 11:52 Partly Cloudy 53 11.7 39 3.9 59 59 N 7 11 30.21 1023 10 16 0.00 0.00
12:52 pm 12:52 Partly Cloudy 56 13.3 39 3.9 53 53 N 12 19 30.19 1022 10 16 0.00 0.00
1:52 pm 13:52 Partly Cloudy 59 15 38 3.3 46 46 N 12 19 30.16 1021 10 16 0.00 0.00
2:52 pm 14:52 Partly Cloudy 61 16.1 36 2.2 39 39 NNW 8 13 30.13 1020 10 16 0.00 0.00
3:52 pm 15:52 Partly Cloudy 63 17.2 36 2.2 37 37 NNW 9 15 30.11 1020 10 16 0.00 0.00
4:52 pm 16:52 Partly Cloudy 64 17.8 35 1.7 34 34 NNW 8 13 30.09 1019 10 16 0.00 0.00
5:52 pm 17:52 Partly Cloudy 65 18.3 34 1.1 32 32 NW 5 7 30.07 1018 10 16 0.00 0.00
6:52 pm 18:52 Partly Cloudy 63 17.2 34 1.1 34 34 NW 7 11 30.07 1018 10 16 0.00 0.00
7:52 pm 19:52 Partly Cloudy 61 16.1 32 0 34 34 Calm 30.07 1018 10 16 0.00 0.00
8:52 pm 20:52 Mostly Cloudy 59 15 36 2.2 42 42 E 6 9 30.09 1019 10 16 0.00 0.00
9:52 pm 21:52 Mostly Cloudy 56 13.3 37 2.8 49 49 ESE 5 7 30.10 1019 10 16 0.00 0.00
10:52 pm 22:52 Mostly Clear 55 12.8 37 2.8 51 51 ESE 3 6 30.09 1019 10 16 0.00 0.00
11:52 pm 23:52 Partly Cloudy 51 10.6 36 2.2 56 56 SSE 7 11 30.09 1019 10 16 0.00 0.00

Powered by AerisWeather